x

Bay Of Campeche - 214 Nm Ne Of Veracruz, Mx (42055) Wave Buoy

2:50am - Tue 23rd Dec 2014 All times are UTC.

  • Sig Wave height 2.0ft
  • Swell Direction
  • Peak Period 7s
  • Average Period 4s
  • Wind
    18mph, 20mph gusts
  • Sea Temp 77°f
  • Air Temp 76°f
  • Sea Pressure 1006mb

More Historic Weather Station data

Upgrade to MSW Pro to gain access to the past 30 days of data for over 8000 Wavebouys and Weather Stations around the globe.

Join Pro

Comparision Forecast

View Surf forecast
   
Tue 12/23 2:50am 2ft 7s 4s 18 20 mph 1006mb 77f 76f
1:50am 2ft 4s 4s 13 16 mph 1006.5mb 77f 76f
12:50am 2ft 7s 4s 13
mph
1006.1mb 77f 76f
Mon 12/22 11:50pm 2.5ft 8s 4s 13 16 mph 1005.9mb 77f 76f
10:50pm 2.5ft 3s 4s 13 16 mph 1006.1mb 77f 76f
9:50pm 2.5ft 4s 4s 13
mph
1006.4mb 77f 76f
8:50pm 2.5ft 8s 4s 13 16 mph 1007.1mb 77f 76f
7:50pm 2.5ft 8s 4s 13 16 mph 1007.9mb 77f 76f
6:50pm 2.5ft 8s 4s 13 16 mph 1009mb 77f 76f
5:50pm 2.5ft 7s 4s 16 20 mph 1010.3mb 77f 76f
4:50pm 2.5ft 7s 4s 13 18 mph 1011.3mb 77f 76f
3:50pm 2.5ft 7s 5s 13 16 mph 1011.8mb 77f 76f
2:50pm 2.5ft 8s 5s 13 16 mph 1011.9mb 77f 76f
1:50pm 2.5ft 7s 5s 13
mph
1011.4mb 77f 75f
12:50pm 2.5ft 6s 5s 11 13 mph 1011.2mb 77f 75f
11:50am 2.5ft 7s 5s 11 13 mph 1010.9mb 77f 75f
10:50am 2.5ft 7s 5s 9 11 mph 1011mb 77f 75f
9:50am 2.5ft 7s 5s 7 9 mph 1011mb 77f 75f
8:50am 2.5ft 7s 5s 9 11 mph 1011.3mb 77f 75f
7:50am 2.5ft 7s 5s 9 11 mph 1012.2mb 77f 75f
6:50am 2.5ft 7s 5s 9 11 mph 1012.7mb 77f 76f
5:50am 2.5ft 7s 5s 11 13 mph 1013.3mb 77f 76f
4:50am 2.5ft 7s 5s 9 11 mph 1013.3mb 77f 76f
3:50am 2.5ft 7s 5s 9 11 mph 1013.3mb 77f 76f
2:50am 2.5ft 7s 5s 11 13 mph 1012.9mb 77f 76f
1:50am 2.5ft 7s 5s 11
mph
1012.7mb 77f 76f
12:50am 2.5ft 7s 5s 9
mph
1012.7mb 77f 76f
Sun 12/21 11:50pm 2.5ft 7s 5s 9
mph
1012.5mb 77f 76f
10:50pm 2.5ft 6s 5s 9 11 mph 1012.4mb 77f 76f
9:50pm 3ft 7s 6s 11 13 mph 1012.2mb 77f 76f
8:50pm 2.5ft 8s 5s 11 13 mph 1012.1mb 77f 76f
7:50pm 3ft 7s 6s 11 13 mph 1012.7mb 77f 76f
6:50pm 3.5ft 7s 6s 11 13 mph 1014mb 77f 76f
5:50pm 3ft 7s 6s 11 13 mph 1015.2mb 77f 76f
4:50pm 3ft 7s 6s 9
mph
1016.1mb 77f 76f
3:50pm 3ft 7s 6s 9 11 mph 1016.4mb 77f 76f
2:50pm 3.5ft 7s 6s 9
mph
1016.5mb 77f 76f
1:50pm 3.5ft 6s 6s 11
mph
1015.9mb 77f 75f
12:50pm 3.5ft 7s 6s 9 11 mph 1015.7mb 77f 75f
11:50am 3.5ft 7s 6s 7 9 mph 1015.2mb 77f 75f
10:50am 3.5ft 7s 6s 9 11 mph 1015.1mb 77f 75f
9:50am 2.5ft 7s 6s 7 9 mph 1015.4mb 77f 75f
8:50am 3ft 7s 6s 7 11 mph 1015.4mb 77f 75f
7:50am 2.5ft 7s 6s 9 11 mph 1015.5mb 77f 75f
6:50am 2.5ft 6s 6s 9
mph
1015.7mb 77f 75f
5:50am 2.5ft 6s 5s 9 11 mph 1016.1mb 77f 75f
4:50am 2.5ft 6s 6s 9
mph
1016.9mb 77f 75f
3:50am 2ft 6s 5s 7 9 mph 1017.1mb 77f 75f
2:50am 2.5ft 7s 6s 7
mph
1016.6mb 77f 75f
1:50am 2.5ft 6s 6s 7 9 mph 1016.2mb 77f 75f
12:50am 2ft 7s 5s 4 7 mph 1015.8mb 77f 75f
Sat 12/20 11:50pm 1.6ft 7s 5s 7 9 mph 1015.2mb 77f 75f
10:50pm 1.3ft 7s 4s 7
mph
1015.2mb 78f 76f
9:50pm 1.3ft 5s 4s 7 9 mph 1015mb 78f 75f
8:50pm 1.3ft 6s 4s 7 9 mph 1015.2mb 78f 76f
7:50pm 1.3ft 6s 4s 7 9 mph 1015.7mb 78f 76f
6:50pm 1.3ft 6s 4s 7
mph
1016.4mb 78f 76f
5:50pm 1.3ft 5s 4s 7 9 mph 1016.9mb 77f 76f
4:50pm 1.3ft 5s 4s 7 9 mph 1017.7mb 77f 76f
3:50pm 1.6ft 5s 4s 9
mph
1017.6mb 77f 76f
2:50pm 1.6ft 6s 4s 9 11 mph 1017.2mb 77f 75f
1:50pm 1.6ft 5s 4s 9 11 mph 1016.8mb 77f 75f
12:50pm 2ft 5s 4s 9
mph
1016mb 77f 75f
11:50am 1.6ft 5s 4s 7 9 mph 1015.7mb 77f 75f
10:50am 2ft 6s 4s 4 7 mph 1015.2mb 77f 75f
9:50am 2ft 6s 5s 2
mph
1015mb 77f 75f
8:50am 2ft 6s 4s  -  2 mph 1015mb 77f 75f
7:50am 2.5ft 6s 5s  -  2 mph 1015.2mb 77f 75f
6:50am 2.5ft 6s 5s  -  mph 1015.6mb 77f 75f
5:50am 2.5ft 6s 5s 2
mph
1015.6mb 77f 75f
4:50am 2.5ft 6s 5s 2 4 mph 1015.9mb 77f 76f
3:50am 2.5ft 6s 5s 4
mph
1015.9mb 77f 76f
2:50am 3.5ft 6s 5s 4
mph
1015.4mb 77f 76f
1:50am 3ft 7s 5s 4
mph
1014.8mb 77f 76f
12:50am 2.5ft 6s 5s 2
mph
1014.2mb 77f 76f
Fri 12/19 11:50pm 2.5ft 6s 5s 2 4 mph 1013.5mb 77f 76f
10:50pm 3ft 6s 5s 4
mph
1012.8mb 77f 76f
9:50pm 3.5ft 6s 5s 4 7 mph 1012.6mb 77f 76f
8:50pm 3.5ft 6s 4s 7 9 mph 1012.7mb 77f 76f
7:50pm 3.5ft 5s 5s 9 11 mph 1013.2mb 77f 76f
6:50pm 3ft 6s 4s 11
mph
1013.9mb 77f 76f
5:50pm 3.5ft 5s 4s 11 13 mph 1015.1mb 77f 76f
4:50pm 3ft 5s 4s 11 13 mph 1015.8mb 76f 76f
3:50pm 3ft 5s 4s 16 18 mph 1015.4mb 76f 76f
2:50pm 2.5ft 5s 4s 16 20 mph 1015.1mb 76f 76f
1:50pm 2.5ft 5s 4s 16 18 mph 1014.7mb 76f 76f
12:50pm 2.5ft 5s 4s 16 18 mph 1014.2mb 77f 75f
11:50am 2.5ft 5s 4s 11 16 mph 1014.4mb 77f 74f
10:50am 2.5ft 6s 4s 13
mph
1014.3mb 77f 74f
9:50am 2.5ft 6s 4s 11 13 mph 1014.4mb 77f 74f
8:50am 2.5ft 6s 4s 11 13 mph 1014.9mb 77f 74f
7:50am 2.5ft 5s 4s 11 16 mph 1015.6mb 77f 74f
6:50am 2.5ft 6s 4s 13 18 mph 1015.5mb 77f 75f
5:50am 3ft 6s 4s 16 18 mph 1016mb 77f 75f
4:50am 3ft 6s 4s 16 18 mph 1016.6mb 77f 75f